This is the latest recevied weather packets stored in our database for station/object N5COP-13. If no packets are shown the sender has not sent any weather packets the latest 10 day(s).
| Time | Temp. | Humidity | Pressure | Rain* | Wind** | Luminosity | Snow |
|---|---|---|---|---|---|---|---|
| 1777556508 | 8.89° C | 74% | 1019.1 hPa | 0 mm | - | 151 W/m² | - |
| 1777556207 | 8.89° C | 74% | 1018.9 hPa | 0 mm | - | 120 W/m² | - |
| 1777555904 | 8.89° C | 74% | 1018.9 hPa | 0 mm | - | 124 W/m² | - |
| 1777555599 | 8.89° C | 74% | 1018.7 hPa | 0 mm | - | 110 W/m² | - |
| 1777555297 | 8.89° C | 74% | 1018.4 hPa | 0 mm | - | 96 W/m² | - |
| 1777554993 | 8.33° C | 74% | 1018.3 hPa | 0 mm | - | 89 W/m² | - |
| 1777554690 | 8.33° C | 74% | 1018.3 hPa | 0 mm | - | 70 W/m² | - |
| 1777554387 | 8.33° C | 74% | 1018.2 hPa | 0 mm | - | 68 W/m² | - |
| 1777554084 | 8.33° C | 74% | 1018.2 hPa | 0 mm | - | 47 W/m² | - |
| 1777553780 | 8.33° C | 74% | 1018.2 hPa | 0 mm | - | 41 W/m² | - |
| 1777553477 | 8.33° C | 74% | 1018.1 hPa | 0 mm | - | 34 W/m² | - |
| 1777553172 | 7.78° C | 74% | 1018 hPa | 0 mm | - | 32 W/m² | - |
| 1777552868 | 7.78° C | 74% | 1018.1 hPa | 0 mm | - | 27 W/m² | - |
| 1777552564 | 7.78° C | 73% | 1018.3 hPa | 0 mm | - | 30 W/m² | - |
| 1777552260 | 7.78° C | 73% | 1018.1 hPa | 0 mm | - | 17 W/m² | - |
| 1777551957 | 7.78° C | 74% | 1018.2 hPa | 0 mm | - | 14 W/m² | - |
| 1777551654 | 7.22° C | 74% | 1018.1 hPa | 0 mm | - | 13 W/m² | - |
| 1777551352 | 7.22° C | 74% | 1018.1 hPa | 0 mm | - | 11 W/m² | - |
| 1777551042 | 7.22° C | 74% | 1018.3 hPa | 0 mm | - | 5 W/m² | - |
| 1777550739 | 7.22° C | 74% | 1017.9 hPa | 0 mm | - | 3 W/m² | - |
| 1777550435 | 6.67° C | 74% | 1018.2 hPa | 0 mm | - | 2 W/m² | - |
| 1777550126 | 6.67° C | 75% | 1018.1 hPa | 0 mm | - | 1 W/m² | - |
| 1777549822 | 6.67° C | 75% | 1018.1 hPa | 0 mm | - | 0 W/m² | - |
| 1777549518 | 6.67° C | 75% | 1017.9 hPa | 0 mm | - | 0 W/m² | - |
| 1777549209 | 6.67° C | 74% | 1018.1 hPa | 0 mm | - | 0 W/m² | - |
* Rain latest hour (hover to see other rain measurements)
** Current wind speed in m/s (hover to see current wind gust speed)